Weather History for KCKV - November, 2013

Change the Weather History Date:

Saturday, November 16, 2013

  Actual Average Record
Temperature  
Mean Temperature 59 °F -  
Max Temperature 66 °F - 82 °F (1958)
Min Temperature 52 °F - 16 °F (1982)
Degree Days  
Heating Degree Days 6    
Month to date heating degree days 273  
Since 1 July heating degree days 501  
Cooling Degree Days 0    
Month to date cooling degree days 0  
Growing Degree Days 8 (Base 50)    
Moisture  
Dew Point 55 °F    
Average Humidity 86    
Maximum Humidity 93    
Minimum Humidity 78    
Precipitation  
Precipitation 0.00 in - 2.15 in (2011)
Month to date precipitation 0.42  
Sea Level Pressure  
Sea Level Pressure 30.01 in    
Wind  
Wind Speed 9 mph (South)    
Max Wind Speed 18 mph    
Max Gust Speed 24 mph    
Visibility 10 miles    
Events      
T = Trace of Precipitation, MM = Missing Value Source: NWS Daily Summary

Daily Weather History Graph

Daily Weather History Graph

Search for Another Location

Airport or City:

Trip Planner

Search our weather history database for the weather conditions in past years. The results will help you decide how hot, cold, wet, or windy it might be!

Date:

Astronomy

Nov. 16, 2013 Rise Set
Actual Time 6:28 AM CST 4:39 PM CST
Civil Twilight 6:01 AM CST 5:07 PM CST
Nautical Twilight 5:29 AM CST 5:38 PM CST
Astronomical Twilight 4:59 AM CST 6:09 PM CST
Moon 4:13 PM CST (11/16) 5:26 AM CST (11/16)
Length of Visible Light 11h 06m
Length of Day
10h 11m
Waxing Gibbous, 99% of the Moon is Illuminated
Nov 16
Waxing Gibbous
Nov 17
Full
Nov 25
Last Quarter
Dec 2
New
Dec 9
First Quarter

Hourly Weather History & Observations

Time (CST) Temp. Dew Point Humidity Pressure Visibility Wind Dir Wind Speed Gust Speed Precip Events Conditions
12:52 AM 52.0 °F 48.9 °F 89% 30.07 in 10.0 mi South 9.2 mph - N/A   Overcast
1:52 AM 52.0 °F 48.9 °F 89% 30.08 in 10.0 mi South 8.1 mph - N/A   Overcast
2:07 AM 51.8 °F 48.2 °F 88% 30.08 in 10.0 mi South 6.9 mph - N/A   Overcast
2:52 AM 52.0 °F 48.9 °F 89% 30.07 in 10.0 mi South 9.2 mph - N/A   Overcast
3:52 AM 53.1 °F 50.0 °F 89% 30.07 in 10.0 mi South 5.8 mph - N/A   Overcast
4:52 AM 53.1 °F 50.0 °F 89% 30.07 in 10.0 mi South 8.1 mph - N/A   Overcast
5:52 AM 53.1 °F 51.1 °F 93% 30.08 in 9.0 mi South 5.8 mph - N/A   Overcast
6:43 AM 53.6 °F 51.8 °F 94% 30.08 in 10.0 mi South 6.9 mph - N/A   Overcast
6:52 AM 54.0 °F 52.0 °F 93% 30.09 in 10.0 mi South 4.6 mph - N/A   Overcast
7:52 AM 54.0 °F 52.0 °F 93% 30.09 in 10.0 mi SSE 8.1 mph - N/A   Overcast
8:32 AM 55.4 °F 53.6 °F 94% 30.08 in 8.0 mi SSE 8.1 mph - N/A   Overcast
8:52 AM 55.9 °F 53.1 °F 90% 30.09 in 8.0 mi South 5.8 mph - N/A   Overcast
9:52 AM 57.9 °F 54.0 °F 87% 30.06 in 9.0 mi SE 10.4 mph - N/A   Overcast
10:52 AM 60.1 °F 55.0 °F 83% 30.04 in 10.0 mi SSE 10.4 mph - N/A   Overcast
11:52 AM 61.0 °F 55.9 °F 83% 30.03 in 10.0 mi South 8.1 mph - N/A   Overcast
12:52 PM 62.1 °F 57.0 °F 84% 29.99 in 10.0 mi SSE 10.4 mph - N/A   Overcast
1:52 PM 63.0 °F 57.0 °F 81% 29.98 in 10.0 mi South 8.1 mph - N/A   Overcast
2:10 PM 62.6 °F 57.2 °F 82% 29.98 in 10.0 mi South 8.1 mph - N/A   Overcast
2:52 PM 63.0 °F 57.9 °F 84% 29.96 in 10.0 mi South 5.8 mph - N/A   Overcast
3:52 PM 64.0 °F 57.9 °F 80% 29.95 in 10.0 mi South 8.1 mph - N/A   Overcast
4:52 PM 64.0 °F 57.9 °F 80% 29.95 in 10.0 mi South 9.2 mph - N/A   Overcast
5:52 PM 64.0 °F 57.9 °F 80% 29.94 in 10.0 mi South 10.4 mph 19.6 mph N/A   Overcast
6:52 PM 64.0 °F 59.0 °F 84% 29.94 in 10.0 mi South 12.7 mph 19.6 mph N/A   Overcast
7:24 PM 64.4 °F 59.0 °F 83% 29.94 in 10.0 mi South 13.8 mph 20.7 mph N/A   Overcast
7:52 PM 64.0 °F 59.0 °F 84% 29.93 in 10.0 mi South 13.8 mph 20.7 mph N/A   Overcast
8:52 PM 64.0 °F 59.0 °F 84% 29.93 in 10.0 mi South 15.0 mph 20.7 mph N/A   Overcast
9:22 PM 64.4 °F 59.0 °F 83% 29.93 in 10.0 mi South 12.7 mph - N/A   Overcast
9:52 PM 64.9 °F 59.0 °F 81% 29.92 in 10.0 mi South 12.7 mph 19.6 mph N/A   Overcast
10:52 PM 64.9 °F 59.0 °F 81% 29.91 in 10.0 mi South 11.5 mph 18.4 mph N/A   Overcast
11:52 PM 66.0 °F 59.0 °F 78% 29.88 in 10.0 mi South 13.8 mph 20.7 mph N/A   Overcast